Погода в Шассеней-дю-Пуату

Франция     46°38′50″N   0°22′16″E
темп.,
°C
ветер,
м/с
пор.,
м/с
влажн.,
%
обл.,
%
осадки,
мм/ч
давл.,
гПа
погр.,
м
16 апреля, пт
пт1623:00+3св412730 0.0 1026222
02:00+1ссв39821 0.0 1026169
05:000ссв38890 0.0 1026150
08:000ссв39856 0.0 1026206
11:00+8св58570 0.0 1026940
14:00+11св6844100 0.0 10252347
17:00+11ссв6845100 0.0 10242134
20:00+8св596279 0.0 1024308
17 апреля, сб
сб1723:00+3ссв37815 0.0 1026121
02:00+2с35895 0.0 102679
05:00+1с389245 0.0 1026143
08:00+1с39895 0.0 1026230
11:00+9ссв69635 0.0 1025941
14:00+11ссв6855100 0.0 10241807
17:00+11ссв5762100 0.0 10231236
20:00+10с4864100 0.1 1023383
18 апреля, вс
вс1823:00+7с387362 0.0 1024201
02:00+3ссз35895 0.0 102468
05:00+2с239295 0.0 102433
08:00+2ссз34915 0.0 102478
11:00+9ссв336987 0.0 1024579
14:00+13с335455 0.0 10231514
17:00+14с235196 0.1 10211754
20:00+11вюв2267100 0.1 102132
19 апреля, пн
пн1923:00+9ююв1169100 0.0 102214
02:00+9в117093 0.0 102111
05:00+6в227989 0.0 102010
08:00+7в227783 0.0 101931
11:00+12в236299 0.0 1019667
14:00+14всв225094 0.0 10181738
17:00+14св4351100 0.0 10161551
20:00+12всв2367100 0.0 101539
20 апреля, вт
вт2023:00+9в2276100 0.0 101624
02:00+7в1179100 0.0 101510
05:00+8с1176100 0.0 101413
08:00+8с1179100 0.0 101435
11:00+8ссв0185100 0.4 1014109
14:00+9св1186100 0.6 1013205
17:00+10зсз1183100 0.1 1013344
20:00+10сз128592 0.3 1012109